When you browse on this site, cookies collect data to enhance your experience and personalize the content and advertising you see.
Visit our Privacy Policy to learn more. By continuing to use the site, you agree to this use of cookies and data.
  • In United Kingdom
  • List of Countries
  • For 7 days
  • Water Temperature
  • Weather Map
  • Weather Widgets
  • user-avatar
    Login

    Hourly Weather Aberdour

    Today, 25 August, Sunday

    Time Temperature Precipitation Wind Pressure Humidity
    00:00 +16°C° 0 mm 1 mps 753 mmHg 86%
    01:00 +15°C° 0 mm 1 mps 752 mmHg 87%
    02:00 +15°C° 0 mm 1 mps 752 mmHg 88%
    03:00 +15°C° 0 mm 1 mps 752 mmHg 89%
    04:00 +15°C° 0 mm 1 mps 752 mmHg 89%
    05:00 +15°C° 0 mm 1 mps 752 mmHg 89%
    06:00 +15°C° 0 mm 1 mps 752 mmHg 88%
    07:00 +16°C° 0 mm 1 mps 752 mmHg 83%
    08:00 +19°C° 0 mm 1 mps 753 mmHg 78%
    09:00 +21°C° 0 mm 1 mps 753 mmHg 72%
    10:00 +22°C° 0 mm 1 mps 753 mmHg 69%
    11:00 +23°C° 0 mm 2 mps 753 mmHg 66%
    12:00 +25°C° 0 mm 2 mps 753 mmHg 62%
    13:00 +25°C° 0 mm 2 mps 753 mmHg 62%
    14:00 +25°C° 0 mm 2 mps 753 mmHg 62%
    15:00 +26°C° 0 mm 2 mps 753 mmHg 61%
    16:00 +25°C° 0 mm 2 mps 752 mmHg 66%
    17:00 +25°C° 0 mm 2 mps 752 mmHg 70%
    18:00 +24°C° 0 mm 1 mps 752 mmHg 74%
    19:00 +22°C° 0 mm 1 mps 752 mmHg 78%
    20:00 +21°C° 0 mm 1 mps 752 mmHg 82%
    21:00 +19°C° 0 mm 1 mps 753 mmHg 85%
    22:00 +19°C° 0 mm 1 mps 752 mmHg 86%
    23:00 +18°C° 0 mm 1 mps 752 mmHg 87%

    Tomorrow, 26 August, Monday

    Time Temperature Precipitation Wind Pressure Humidity
    00:00 +18°C° 0 mm 1 mps 752 mmHg 89%
    01:00 +16°C° 0 mm 1 mps 752 mmHg 89%
    02:00 +16°C° 0 mm 1 mps 752 mmHg 89%
    03:00 +15°C° 0 mm 1 mps 751 mmHg 90%
    04:00 +15°C° 0 mm 1 mps 751 mmHg 90%
    05:00 +15°C° 0 mm 1 mps 751 mmHg 90%
    06:00 +15°C° 0 mm 1 mps 751 mmHg 90%
    07:00 +16°C° 0 mm 2 mps 751 mmHg 87%
    08:00 +17°C° 0 mm 2 mps 751 mmHg 84%
    09:00 +19°C° 0 mm 3 mps 751 mmHg 80%
    10:00 +20°C° 0 mm 3 mps 751 mmHg 77%
    11:00 +20°C° 0 mm 3 mps 751 mmHg 74%
    12:00 +21°C° 0 mm 4 mps 751 mmHg 71%
    13:00 +21°C° 0 mm 4 mps 751 mmHg 70%
    14:00 +21°C° 0 mm 4 mps 751 mmHg 69%
    15:00 +22°C° 0 mm 4 mps 751 mmHg 68%
    16:00 +21°C° 0 mm 4 mps 751 mmHg 71%
    17:00 +20°C° 0 mm 3 mps 750 mmHg 73%
    18:00 +19°C° 0 mm 3 mps 750 mmHg 76%
    19:00 +18°C° 0 mm 2 mps 750 mmHg 78%
    20:00 +16°C° 0 mm 2 mps 751 mmHg 80%
    21:00 +14°C° 0 mm 2 mps 751 mmHg 83%
    22:00 +14°C° 0 mm 2 mps 751 mmHg 85%
    23:00 +13°C° 0 mm 2 mps 751 mmHg 87%

    Day after tomorrow, 27 August, Tuesday

    Time Temperature Precipitation Wind Pressure Humidity
    00:00 +13°C° 0 mm 2 mps 750 mmHg 88%
    01:00 +12°C° 0 mm 2 mps 750 mmHg 88%
    02:00 +12°C° 0 mm 2 mps 750 mmHg 88%
    03:00 +12°C° 0 mm 2 mps 750 mmHg 88%
    04:00 +12°C° 0 mm 1 mps 750 mmHg 86%
    05:00 +13°C° 0 mm 1 mps 750 mmHg 85%
    06:00 +13°C° 0 mm 1 mps 750 mmHg 84%
    07:00 +14°C° 0 mm 1 mps 750 mmHg 80%
    08:00 +16°C° 0 mm 2 mps 750 mmHg 77%
    09:00 +17°C° 0 mm 2 mps 750 mmHg 74%
    10:00 +18°C° 0 mm 2 mps 750 mmHg 72%
    11:00 +19°C° 0 mm 3 mps 750 mmHg 69%
    12:00 +19°C° 0 mm 3 mps 750 mmHg 67%
    13:00 +20°C° 0 mm 3 mps 750 mmHg 67%
    14:00 +20°C° 0 mm 3 mps 750 mmHg 68%
    15:00 +20°C° 0 mm 4 mps 750 mmHg 68%
    16:00 +19°C° 0 mm 3 mps 750 mmHg 73%
    17:00 +18°C° 0 mm 3 mps 750 mmHg 77%
    18:00 +17°C° 0 mm 3 mps 750 mmHg 81%
    19:00 +16°C° 0 mm 3 mps 750 mmHg 84%
    20:00 +14°C° 0 mm 3 mps 750 mmHg 87%
    21:00 +14°C° 0 mm 2 mps 750 mmHg 90%
    22:00 +14°C° 0 mm 2 mps 750 mmHg 90%
    23:00 +15°C° 0 mm 2 mps 749 mmHg 89%

    28 August, Wednesday

    Time Temperature Precipitation Wind Pressure Humidity
    00:00 +15°C° 0 mm 2 mps 749 mmHg 89%
    01:00 +14°C° 0 mm 2 mps 749 mmHg 89%
    02:00 +14°C° 0 mm 2 mps 748 mmHg 90%
    03:00 +14°C° 0 mm 2 mps 748 mmHg 91%
    04:00 +14°C° 0.2 mm 2 mps 748 mmHg 91%
    05:00 +14°C° 0.2 mm 1 mps 748 mmHg 92%
    06:00 +14°C° 0.2 mm 1 mps 748 mmHg 92%
    07:00 +14°C° 0.9 mm 1 mps 747 mmHg 93%
    08:00 +14°C° 0.9 mm 2 mps 747 mmHg 94%
    09:00 +14°C° 0.9 mm 2 mps 747 mmHg 95%
    10:00 +14°C° 0.5 mm 2 mps 747 mmHg 94%
    11:00 +14°C° 0.5 mm 2 mps 746 mmHg 94%
    12:00 +15°C° 0.5 mm 2 mps 746 mmHg 93%
    13:00 +15°C° 0.1 mm 2 mps 746 mmHg 91%
    14:00 +16°C° 0.1 mm 1 mps 746 mmHg 89%
    15:00 +16°C° 0.1 mm 1 mps 746 mmHg 87%
    16:00 +16°C° 0.2 mm 1 mps 745 mmHg 89%
    17:00 +15°C° 0.2 mm 1 mps 745 mmHg 92%
    18:00 +15°C° 0.2 mm 1 mps 745 mmHg 94%
    19:00 +15°C° 0.3 mm 1 mps 745 mmHg 95%
    20:00 +15°C° 0.3 mm 1 mps 745 mmHg 95%
    21:00 +14°C° 0.3 mm 1 mps 745 mmHg 96%
    22:00 +14°C° 0.1 mm 1 mps 745 mmHg 96%
    23:00 +14°C° 0.1 mm 1 mps 745 mmHg 95%

    29 August, Thursday

    Time Temperature Precipitation Wind Pressure Humidity
    00:00 +14°C° 0.1 mm 1 mps 745 mmHg 95%
    01:00 +13°C° 0.1 mm 2 mps 745 mmHg 95%
    02:00 +13°C° 0.1 mm 2 mps 745 mmHg 94%
    03:00 +12°C° 0.1 mm 3 mps 745 mmHg 93%
    04:00 +11°C° 0 mm 3 mps 745 mmHg 92%
    05:00 +10°C° 0 mm 3 mps 745 mmHg 90%
    06:00 +8°C° 0 mm 4 mps 745 mmHg 88%
    07:00 +10°C° 0 mm 4 mps 746 mmHg 85%
    08:00 +12°C° 0 mm 5 mps 746 mmHg 82%
    09:00 +13°C° 0 mm 5 mps 746 mmHg 79%
    10:00 +14°C° 0 mm 5 mps 746 mmHg 74%
    11:00 +15°C° 0 mm 6 mps 746 mmHg 69%
    12:00 +16°C° 0 mm 6 mps 746 mmHg 64%
    13:00 +15°C° 0 mm 6 mps 746 mmHg 69%
    14:00 +15°C° 0 mm 6 mps 746 mmHg 74%
    15:00 +14°C° 0 mm 6 mps 745 mmHg 79%
    16:00 +14°C° 0.2 mm 6 mps 745 mmHg 81%
    17:00 +14°C° 0.2 mm 6 mps 745 mmHg 83%
    18:00 +13°C° 0.2 mm 6 mps 745 mmHg 85%
    19:00 +13°C° 0.1 mm 5 mps 745 mmHg 86%
    20:00 +12°C° 0.1 mm 5 mps 746 mmHg 88%
    21:00 +12°C° 0.1 mm 4 mps 746 mmHg 89%
    22:00 +12°C° 0 mm 4 mps 746 mmHg 88%
    23:00 +11°C° 0 mm 4 mps 746 mmHg 87%

    30 August, Friday

    Time Temperature Precipitation Wind Pressure Humidity
    00:00 +11°C° 0 mm 4 mps 746 mmHg 86%
    01:00 +11°C° 0 mm 4 mps 746 mmHg 86%
    02:00 +11°C° 0 mm 4 mps 746 mmHg 87%
    03:00 +12°C° 0 mm 4 mps 746 mmHg 87%
    04:00 +11°C° 0.1 mm 4 mps 746 mmHg 88%
    05:00 +11°C° 0.1 mm 4 mps 746 mmHg 88%
    06:00 +10°C° 0.1 mm 5 mps 746 mmHg 89%
    07:00 +11°C° 0 mm 6 mps 747 mmHg 84%
    08:00 +12°C° 0 mm 7 mps 747 mmHg 79%
    09:00 +12°C° 0 mm 8 mps 747 mmHg 74%
    10:00 +14°C° 0.1 mm 7 mps 747 mmHg 74%
    11:00 +14°C° 0.1 mm 7 mps 747 mmHg 74%
    12:00 +15°C° 0.1 mm 7 mps 748 mmHg 74%
    13:00 +15°C° 0.2 mm 7 mps 747 mmHg 77%
    14:00 +15°C° 0.2 mm 7 mps 747 mmHg 80%
    15:00 +15°C° 0.2 mm 6 mps 747 mmHg 84%
    16:00 +14°C° 1.2 mm 6 mps 747 mmHg 87%
    17:00 +14°C° 1.2 mm 5 mps 746 mmHg 90%
    18:00 +13°C° 1.2 mm 4 mps 746 mmHg 94%
    19:00 +13°C° 1.8 mm 4 mps 746 mmHg 94%
    20:00 +12°C° 1.8 mm 3 mps 746 mmHg 95%
    21:00 +13°C° 1.8 mm 2 mps 745 mmHg 96%
    22:00 +13°C° 1.7 mm 2 mps 745 mmHg 96%
    23:00 +13°C° 1.7 mm 1 mps 744 mmHg 96%
    Show more